TimeAKST,TemperatureF,Dew PointF,Humidity,Sea Level PressureIn,VisibilityMPH,Wind Direction,Wind SpeedMPH,Gust SpeedMPH,PrecipitationIn,Events,Conditions,WindDirDegrees,DateUTC
12:53 AM,21.9,21.0,96,29.76,10.0,Calm,Calm,-,0.00,,Overcast,0,2012-12-06 09:53:00
1:37 AM,24.8,21.2,86,29.76,2.0,NE,4.6,-,0.01,Snow,Light Snow,40,2012-12-06 10:37:00
1:43 AM,24.8,21.2,86,29.76,3.0,SSW,3.5,-,0.01,Snow,Light Snow,200,2012-12-06 10:43:00
1:53 AM,24.1,21.9,91,29.76,4.0,WSW,4.6,-,0.01,Snow,Light Snow,240,2012-12-06 10:53:00
2:23 AM,24.8,23.0,93,29.76,1.5,Calm,Calm,-,0.01,Snow,Light Snow,0,2012-12-06 11:23:00
2:40 AM,24.8,21.2,86,29.77,1.0,Calm,Calm,-,0.02,Snow,Light Snow,0,2012-12-06 11:40:00
3:16 AM,26.6,24.8,93,29.76,4.0,ENE,5.8,-,0.01,Snow,Light Snow,70,2012-12-06 12:16:00
3:26 AM,26.6,23.0,86,29.76,7.0,ENE,6.9,-,0.01,Snow,Light Snow,60,2012-12-06 12:26:00
3:36 AM,26.6,23.0,86,29.76,10.0,East,6.9,-,0.01,Snow,Light Snow,80,2012-12-06 12:36:00
3:53 AM,24.1,23.0,96,29.76,10.0,SE,4.6,-,0.01,,Overcast,130,2012-12-06 12:53:00
4:53 AM,25.0,21.9,88,29.77,10.0,Calm,Calm,-,N/A,,Overcast,0,2012-12-06 13:53:00
5:53 AM,23.0,21.9,96,29.77,10.0,Calm,Calm,-,N/A,,Overcast,0,2012-12-06 14:53:00
6:06 AM,21.2,19.4,93,29.77,10.0,Calm,Calm,-,N/A,,Overcast,0,2012-12-06 15:06:00
6:53 AM,23.0,21.0,92,29.77,7.0,Calm,Calm,-,0.00,Snow,Light Snow,0,2012-12-06 15:53:00
7:40 AM,24.8,23.0,93,29.77,1.8,Calm,Calm,-,0.00,Snow,Light Snow,0,2012-12-06 16:40:00
7:53 AM,25.0,21.9,88,29.77,0.8,Calm,Calm,-,0.01,Snow,Light Snow,0,2012-12-06 16:53:00
8:26 AM,24.8,24.8,100,29.77,0.8,Calm,Calm,-,0.04,Snow,Light Snow,0,2012-12-06 17:26:00
8:41 AM,24.8,23.0,93,29.77,1.0,Calm,Calm,-,0.05,Snow,Light Snow,0,2012-12-06 17:41:00
8:53 AM,25.0,23.0,92,29.77,0.8,Calm,Calm,-,0.06,Snow,Light Snow,0,2012-12-06 17:53:00
9:53 AM,26.1,24.1,92,29.78,0.5,ENE,8.1,-,0.03,Fog-Snow,Snow,70,2012-12-06 18:53:00
10:14 AM,26.6,23.0,86,29.78,1.0,ENE,6.9,-,0.00,Snow,Light Snow,70,2012-12-06 19:14:00
10:53 AM,26.1,23.0,88,29.80,3.0,ENE,5.8,-,0.01,Snow,Light Snow,70,2012-12-06 19:53:00
11:23 AM,24.8,21.2,86,29.79,10.0,East,4.6,-,0.00,Snow,Light Snow,90,2012-12-06 20:23:00
11:53 AM,26.1,23.0,88,29.79,10.0,Calm,Calm,-,0.00,,Overcast,0,2012-12-06 20:53:00
12:53 PM,24.1,21.0,88,29.78,10.0,Calm,Calm,-,N/A,,Overcast,0,2012-12-06 21:53:00
1:53 PM,26.1,23.0,88,29.77,10.0,West,4.6,-,N/A,,Overcast,270,2012-12-06 22:53:00
2:53 PM,25.0,23.0,92,29.75,10.0,Calm,Calm,-,0.00,,Overcast,0,2012-12-06 23:53:00
3:53 PM,24.1,23.0,96,29.74,10.0,Calm,Calm,-,N/A,,Mostly Cloudy,0,2012-12-07 00:53:00
4:53 PM,21.9,19.9,92,29.73,10.0,Calm,Calm,-,N/A,,Overcast,0,2012-12-07 01:53:00
5:53 PM,21.9,19.9,92,29.71,10.0,Calm,Calm,-,N/A,,Overcast,0,2012-12-07 02:53:00
6:53 PM,21.9,19.9,92,29.70,10.0,Calm,Calm,-,N/A,,Overcast,0,2012-12-07 03:53:00
7:53 PM,21.9,19.9,92,29.69,10.0,Calm,Calm,-,N/A,,Overcast,0,2012-12-07 04:53:00
8:53 PM,21.9,21.0,96,29.69,10.0,Calm,Calm,-,N/A,,Overcast,0,2012-12-07 05:53:00
9:53 PM,23.0,21.0,92,29.68,10.0,Calm,Calm,-,N/A,,Overcast,0,2012-12-07 06:53:00
10:53 PM,23.0,21.0,92,29.66,10.0,Calm,Calm,-,N/A,,Overcast,0,2012-12-07 07:53:00
11:53 PM,23.0,19.9,88,29.65,10.0,NNE,5.8,-,N/A,,Overcast,30,2012-12-07 08:53:00